Weather History for Flint, MI

Change the Weather History Date:

Wednesday, October 24, 2012

  Actual Average Record
Temperature  
Mean Temperature 70 °F 47 °F  
Max Temperature 79 °F 56 °F 81 °F (1963)
Min Temperature 60 °F 37 °F 22 °F (1981)
Degree Days  
Heating Degree Days 0 18  
Month to date heating degree days 302 350  
Since 1 July heating degree days 476 560  
Cooling Degree Days 5 0  
Month to date cooling degree days 7 2  
Year to date cooling degree days 860 528  
Growing Degree Days 20 (Base 50)    
Moisture  
Dew Point 59 °F    
Average Humidity 76    
Maximum Humidity 97    
Minimum Humidity 54    
Precipitation  
Precipitation 0.02 in 0.07 in 1.04 in (2001)
Month to date precipitation 2.76 1.94  
Year to date precipitation 27.06 26.25  
Snow  
Snow 0.00 in 0.00 in T in (2006)
Month to date snowfall 0.0 0.3  
Since 1 July snowfall 0.0 0.3  
Since 1 September snowfall 0.0 0.3  
Snow Depth 0.00 in    
Sea Level Pressure  
Sea Level Pressure 29.99 in    
Wind  
Wind Speed 6 mph (South)    
Max Wind Speed 12 mph    
Max Gust Speed 16 mph    
Visibility 8 miles    
Events Rain    
T = Trace of Precipitation, MM = Missing Value Source: NWS Daily Summary

Daily Weather History Graph

Daily Weather History Graph

Search for Another Location

Airport:

Trip Planner

Search our weather history database for the weather conditions in past years. The results will help you decide how hot, cold, wet, or windy it might be!

Date:

Astronomy

Oct. 24, 2012 Rise Set
Actual Time 8:00 AM EDT 6:37 PM EDT
Civil Twilight 7:30 AM EDT 7:06 PM EDT
Nautical Twilight 6:57 AM EDT 7:39 PM EDT
Astronomical Twilight 6:24 AM EDT 8:12 PM EDT
Moon 3:59 PM EDT (10/24) 2:47 AM EDT (10/24)
Length of Visible Light 11h 35m
Length of Day
10h 37m
Waxing Gibbous, 76% of the Moon is Illuminated
Oct 24
Waxing Gibbous
Oct 29
Full
Nov 6
Last Quarter
Nov 13
New
Nov 20
First Quarter

Hourly Weather History & Observations

Time (EDT) Temp. Dew Point Humidity Pressure Visibility Wind Dir Wind Speed Gust Speed Precip Events Conditions
12:46 AM 60.8 °F 59.0 °F 94% 30.00 in 4.0 mi Calm Calm - N/A   Overcast
12:53 AM 61.0 °F 59.0 °F 93% 30.00 in 4.0 mi Calm Calm - N/A   Overcast
1:53 AM 61.0 °F 59.0 °F 93% 30.00 in 4.0 mi South 3.5 mph - N/A   Overcast
2:35 AM 60.8 °F 59.0 °F 94% 30.00 in 3.0 mi Calm Calm - 0.00 in Rain Light Rain
2:48 AM 60.8 °F 59.0 °F 94% 30.00 in 3.0 mi South 3.5 mph - 0.01 in Rain Light Rain
2:53 AM 61.0 °F 59.0 °F 93% 30.00 in 5.0 mi South 4.6 mph - 0.02 in Rain Light Rain
3:53 AM 61.0 °F 59.0 °F 93% 29.99 in 6.0 mi South 4.6 mph - 0.00 in   Overcast
4:53 AM 61.0 °F 59.0 °F 93% 29.99 in 7.0 mi South 3.5 mph - N/A   Overcast
5:51 AM 60.8 °F 59.0 °F 94% 30.00 in 7.0 mi South 3.5 mph - N/A   Overcast
5:53 AM 61.0 °F 59.0 °F 93% 30.00 in 7.0 mi South 3.5 mph - N/A   Overcast
6:53 AM 61.0 °F 59.0 °F 93% 30.01 in 6.0 mi South 4.6 mph - N/A   Overcast
7:16 AM 62.6 °F 59.0 °F 88% 30.01 in 7.0 mi South 3.5 mph - N/A   Overcast
7:53 AM 61.0 °F 59.0 °F 93% 30.01 in 6.0 mi South 4.6 mph - N/A   Overcast
8:26 AM 62.6 °F 57.2 °F 82% 30.01 in 6.0 mi South 5.8 mph - N/A   Overcast
8:53 AM 62.1 °F 59.0 °F 90% 30.01 in 6.0 mi South 5.8 mph - N/A   Overcast
9:53 AM 63.0 °F 59.0 °F 87% 30.02 in 7.0 mi South 6.9 mph - N/A   Clear
10:53 AM 66.0 °F 59.0 °F 78% 30.02 in 9.0 mi SSW 5.8 mph - N/A   Clear
11:53 AM 69.1 °F 60.1 °F 73% 30.00 in 10.0 mi SSW 4.6 mph - N/A   Clear
12:53 PM 72.0 °F 60.1 °F 66% 29.99 in 10.0 mi South 6.9 mph - N/A   Clear
1:53 PM 75.0 °F 61.0 °F 62% 29.96 in 10.0 mi South 5.8 mph - N/A   Clear
2:53 PM 77.0 °F 61.0 °F 58% 29.95 in 10.0 mi South 10.4 mph - N/A   Clear
3:53 PM 77.0 °F 60.1 °F 56% 29.94 in 10.0 mi South 8.1 mph - N/A   Clear
5:53 PM 77.0 °F 59.0 °F 54% 29.94 in 10.0 mi South 8.1 mph - N/A   Clear
6:53 PM 72.0 °F 57.9 °F 61% 29.95 in 10.0 mi South 6.9 mph - N/A   Clear
7:53 PM 68.0 °F 57.0 °F 68% 29.96 in 10.0 mi South 5.8 mph - N/A   Clear
8:53 PM 66.2 °F 57.2 °F 73% 29.97 in 10.0 mi South 6.9 mph - N/A   Clear
9:53 PM 63.0 °F 57.0 °F 81% 29.98 in 10.0 mi SSE 5.8 mph - N/A   Clear
10:53 PM 64.9 °F 57.9 °F 78% 29.97 in 10.0 mi South 4.6 mph - N/A   Clear
11:53 PM 64.9 °F 57.9 °F 78% 29.96 in 10.0 mi South 5.8 mph - N/A   Clear